Location: �chenoz-la-M�line
(47.6009°N, 6.1354°E)
Time: 03:31:36
(UTC+00:00)

Cosmos 2219 Rocket - Pass Details

Date: 27 January 2021
Orbit: 828 x 846 km, 71.0° (Epoch: 27 February)

Event Time Altitude Azimuth Distance (km) Brightness Sun altitude
Exits shadow 03:41:38 22° 19° (NNE) 1,741 4.0 -34.7°
Drops below altitude 10° 03:43:33 10° 23° (NNE) 2,444 4.9 -34.4°
Sets 03:46:01 0° 27° (NNE) 3,383 5.8 -33.9°
